[[{"header":{"parameterUnit":"m.s-1","parameterCategory":1,"la1":30.2991,"la2":30.254,"lo1":-89.0895,"lo2":-89.0444,"dy":0.0017,"dx":0.0017,"nx":28,"ny":28,"refTime":"2023-07-27T21:00:00:Z","depth":0,"parameterNumber":2,"parameterNumberName":"U-component_of_WINDS"},"data":[0,0,0,0,0,0,0,0,0,0,0,0,0,0,0,0,0,0,0,0,0,0,0,0,0,0,0,0,0,0,0,0,0,0,0,0,0,0,0,0,0,0,0,0,0,0,0,0,0,0,0,0,0,0,0,0,0,0,1.4192,1.4193,0,1.4271,1.4272,1.4273,1.4298,1.4297,1.4297,1.4297,1.4375,1.4377,1.438,0,0,0,0,0,0,0,0,0,0,0,0,0,1.4059,1.4061,1.4192,1.4193,1.4194,1.4271,1.4272,1.4273,1.4298,1.4297,1.4297,1.4296,1.4374,1.4377,1.438,0,0,0,0,0,0,0,0,0,0,0,0,0,1.4125,1.4062,1.4192,1.4216,1.4218,1.4271,1.4272,1.4273,1.4298,1.4297,1.4297,1.4296,1.4373,1.4377,1.438,1.4414,0,0,1.4392,1.4393,0,0,0,0,0,0,0,0,1.4121,1.413,1.4211,1.4214,1.4217,1.4274,1.4254,1.432,1.4298,1.4268,1.4297,1.4296,1.4342,1.4348,1.4364,1.4418,1.4421,1.4392,1.4394,1.4396,1.4397,0,0,0,0,0,0,0,1.4117,1.4127,1.4223,1.4212,1.4216,1.4221,1.423,1.4267,1.4307,1.427,1.4272,1.4281,1.4343,1.436,1.4366,1.4422,1.4392,1.4395,1.4397,1.4399,1.4506,1.4507,0,0,0,0,0,0,1.4108,1.4123,1.4221,1.4226,1.4167,1.4224,1.4234,1.4256,1.4306,1.4313,1.4282,1.4282,1.4354,1.4362,1.4369,1.4411,1.4396,1.4399,1.4401,1.4506,1.4506,1.4507,0,0,0,0,0,0,1.4106,1.4117,1.4217,1.4175,1.4188,1.4227,1.4252,1.4258,1.4275,1.4315,1.4322,1.4292,1.4354,1.4364,1.4402,1.4414,1.4401,1.4404,1.4505,1.4506,1.4507,1.4495,0,0,0,0,0,0,1.4102,1.4116,1.413,1.4175,1.419,1.4251,1.4253,1.426,1.4282,1.4283,1.4327,1.4333,1.4354,1.4397,1.4406,1.4418,1.4407,1.4504,1.4505,1.4506,1.4494,1.4495,1.4496,0,0,0,0,0,1.4097,1.4123,1.413,1.4142,1.4209,1.4251,1.426,1.4285,1.4283,1.4296,1.4322,1.4332,1.4411,1.4401,1.4411,1.4425,1.4503,1.4505,1.4506,1.4494,1.4495,1.4496,0,0,0,0,0,0,1.4077,1.4129,1.4138,1.418,1.4211,1.4256,1.4274,1.4285,1.4317,1.4317,1.4345,1.4355,1.4391,1.4412,1.44,1.4459,1.4457,1.4461,1.4444,1.4446,1.4447,1.444,1.441,0,0,0,0,0,1.4078,1.4109,1.4153,1.4185,1.4201,1.4234,1.4254,1.427,1.4303,1.4317,1.4345,1.4376,1.4408,1.4428,1.446,1.4498,1.4507,1.4512,1.4513,1.4513,1.4516,1.4536,1.4539,1.4512,1.4512,1.4512,0,0,1.4079,1.4112,1.413,1.4182,1.4208,1.4239,1.4245,1.4278,1.4301,1.4321,1.436,1.4381,1.4418,1.4456,1.4474,1.4474,1.4525,1.4515,1.4515,1.4518,1.4538,1.4541,1.4543,1.4513,1.4513,1.4513,0,0,1.4098,1.4126,1.4156,1.4182,1.4222,1.4244,1.4251,1.4293,1.4309,1.4348,1.4364,1.4391,1.4445,1.447,1.449,1.4517,1.4527,1.4527,1.4531,1.455,1.4552,1.4554,1.4563,1.4566,1.4529,1.4529,1.4529,0,1.4094,1.4142,1.4169,1.4201,1.4223,1.4244,1.4273,1.4297,1.4345,1.4359,1.4358,1.4427,1.4453,1.4497,1.4503,1.4519,1.4527,1.4521,1.455,1.4552,1.4555,1.4563,1.4567,1.4529,1.4529,1.4529,1.4529,0,1.4135,1.4168,1.4188,1.4234,1.4258,1.4288,1.4319,1.434,1.4354,1.4375,1.4414,1.4446,1.4484,1.4496,1.451,1.4542,1.454,1.4545,1.4543,1.4556,1.4565,1.4568,1.4528,1.4528,1.4528,1.4529,0,0,1.4144,1.4204,1.421,1.4231,1.4276,1.4302,1.4332,1.437,1.4387,1.4419,1.4445,1.449,1.4495,1.4517,1.4534,1.4551,1.4569,1.4553,1.4555,1.4554,1.4605,1.4601,1.4604,1.4576,1.4577,1.4578,1.4601,0,1.4167,1.4224,1.4249,1.4294,1.4324,1.4344,1.437,1.44,1.4421,1.4449,1.4472,1.4503,1.4507,1.452,1.4539,1.4563,1.4579,1.4562,1.4599,1.46,1.4589,1.4609,1.4605,1.4626,1.4605,1.4606,1.4606,0,1.4202,1.4234,1.4283,1.4323,1.4337,1.4361,1.4397,1.4423,1.4457,1.4471,1.4496,1.4512,1.4544,1.4541,1.4584,1.4572,1.4588,1.4603,1.4604,1.4608,1.4604,1.4612,1.4633,1.4636,1.4612,1.4611,1.4611,0,1.4201,1.4257,1.4293,1.4311,1.4359,1.4375,1.4396,1.443,1.445,1.4482,1.4495,1.453,1.4548,1.4574,1.4598,1.4594,1.4639,1.4638,1.4651,1.465,1.4659,1.4658,1.4682,1.4671,1.4671,1.4671,1.4671,0,1.4224,1.4253,1.4294,1.4316,1.4348,1.4376,1.4406,1.4428,1.4458,1.4483,1.4503,1.4526,1.4557,1.4584,1.4604,1.4636,1.4645,1.4656,1.4661,1.4654,1.4652,1.4665,1.4664,1.4671,1.4671,1.4671,1.4671,0,1.4229,1.4258,1.4298,1.4341,1.4353,1.4374,1.441,1.4432,1.4454,1.4486,1.4495,1.4529,1.4562,1.4589,1.4632,1.4645,1.4679,1.4685,1.4668,1.467,1.4681,1.4679,1.4713,1.4718,1.4704,1.4704,1.4704,0,1.4242,1.4264,1.4309,1.4328,1.4349,1.438,1.4401,1.4429,1.445,1.449,1.4507,1.4541,1.457,1.4622,1.465,1.4682,1.4688,1.4698,1.4693,1.4686,1.4688,1.4686,1.4688,1.4698,1.4698,1.4698,1.4698,0,1.426,1.4273,1.4304,1.4339,1.4365,1.4394,1.4423,1.4438,1.4471,1.4493,1.4528,1.455,1.4594,1.4628,1.4663,1.4684,1.4696,1.47,1.4704,1.4697,1.4686,1.4691,1.4668,1.4699,1.4699,1.4698,1.4698,1.4698,1.4269,1.4289,1.4324,1.4357,1.4383,1.441,1.4432,1.4457,1.4486,1.4525,1.4539,1.4574,1.4606,1.4656,1.4676,1.4703,1.4704,1.4711,1.4713,1.4714,1.4712,1.4682,1.471,1.471,1.471,1.471,1.471,0,1.4287,1.4311,1.4341,1.4382,1.4408,1.4419,1.4451,1.4472,1.4503,1.4532,1.4561,1.4599,1.4632,1.4663,1.4696,1.4712,1.4718,1.472,1.4719,1.4723,1.471,1.4702,1.4714,1.4714,1.4714,1.4714,1.4714,1.4714,1.43,1.4335,1.4352,1.4399,1.4423,1.4458,1.4475,1.45,1.4524,1.4567,1.4594,1.4614,1.4644,1.468,1.471,1.4718,1.4729,1.4729,1.4738,1.4725,1.4724,1.4723,1.4716,1.4731,1.4731,1.4749,1.4749,1.4749]},{"header":{"parameterUnit":"m.s-1","parameterCategory":1,"la1":30.2991,"la2":30.254,"lo1":-89.0895,"lo2":-89.0444,"dy":0.0017,"dx":0.0017,"nx":28,"ny":28,"refTime":"2023-07-27T21:00:00:Z","depth":0,"parameterNumber":3,"parameterNumberName":"V-component_of_WINDS"},"data":[0,0,0,0,0,0,0,0,0,0,0,0,0,0,0,0,0,0,0,0,0,0,0,0,0,0,0,0,0,0,0,0,0,0,0,0,0,0,0,0,0,0,0,0,0,0,0,0,0,0,0,0,0,0,0,0,0,0,1.9034,1.9034,0,1.8958,1.8957,1.8956,1.8898,1.8897,1.8897,1.8896,1.8814,1.8812,1.8811,0,0,0,0,0,0,0,0,0,0,0,0,0,1.9125,1.9124,1.9034,1.9033,1.9033,1.8958,1.8957,1.8956,1.8898,1.8897,1.8897,1.8896,1.8814,1.8812,1.881,0,0,0,0,0,0,0,0,0,0,0,0,0,1.9071,1.9123,1.9035,1.8995,1.899,1.8958,1.8957,1.8956,1.8898,1.8897,1.8896,1.8896,1.8815,1.8813,1.881,1.8811,0,0,1.8802,1.8801,0,0,0,0,0,0,0,0,1.9074,1.9068,1.9001,1.8997,1.8992,1.8937,1.8959,1.8907,1.8898,1.8933,1.8896,1.8895,1.8855,1.8849,1.8837,1.8807,1.8803,1.8802,1.8801,1.88,1.8799,0,0,0,0,0,0,0,1.9078,1.907,1.9004,1.9001,1.8995,1.8979,1.897,1.8949,1.8899,1.893,1.8925,1.8917,1.8852,1.8839,1.8834,1.8802,1.8802,1.88,1.8798,1.8797,1.8767,1.8768,0,0,0,0,0,0,1.9088,1.9074,1.9006,1.9002,1.9032,1.8978,1.8968,1.8955,1.8899,1.889,1.8918,1.8915,1.8844,1.8837,1.8831,1.8827,1.88,1.8797,1.8796,1.8766,1.8767,1.8768,0,0,0,0,0,0,1.9091,1.9083,1.901,1.9037,1.9026,1.8977,1.8963,1.8954,1.8941,1.8891,1.8881,1.8914,1.8843,1.8835,1.8816,1.8823,1.8796,1.8794,1.8765,1.8766,1.8767,1.8819,0,0,0,0,0,0,1.9093,1.9084,1.9085,1.9037,1.9025,1.8998,1.8964,1.8953,1.8937,1.8932,1.8884,1.8875,1.8842,1.882,1.8814,1.8819,1.8792,1.8764,1.8766,1.8767,1.8817,1.8822,1.8827,0,0,0,0,0,1.9097,1.9102,1.9085,1.9078,1.9025,1.8998,1.8991,1.8953,1.8938,1.8938,1.8905,1.8877,1.8824,1.8819,1.8811,1.8816,1.8764,1.8765,1.8767,1.8815,1.8821,1.8826,0,0,0,0,0,0,1.9151,1.9095,1.9076,1.9066,1.9038,1.8988,1.8987,1.8961,1.8935,1.8932,1.8885,1.8874,1.886,1.8836,1.8832,1.8812,1.879,1.879,1.8829,1.8835,1.8839,1.8845,1.879,0,0,0,0,0,1.9162,1.9146,1.9097,1.9093,1.908,1.9036,1.9023,1.8996,1.8964,1.8951,1.8917,1.8886,1.8862,1.8847,1.8822,1.8813,1.8801,1.8812,1.8817,1.8822,1.8822,1.8814,1.8818,1.8773,1.8773,1.8773,0,0,1.9184,1.9151,1.9144,1.9103,1.9078,1.9061,1.9026,1.901,1.8996,1.8948,1.8929,1.8903,1.8864,1.885,1.8842,1.883,1.8832,1.8824,1.8827,1.8825,1.8816,1.882,1.8824,1.8774,1.8774,1.8774,0,0,1.9215,1.919,1.9183,1.9158,1.9121,1.9091,1.909,1.9044,1.9026,1.9006,1.8969,1.8951,1.8911,1.8885,1.8866,1.8887,1.8859,1.888,1.8905,1.8898,1.8901,1.8904,1.891,1.8913,1.8881,1.8881,1.8881,0,1.9247,1.9221,1.9182,1.9168,1.915,1.9108,1.9099,1.9077,1.9033,1.9021,1.9008,1.8956,1.8927,1.8905,1.8911,1.8897,1.8893,1.8885,1.8904,1.8907,1.8909,1.8914,1.8917,1.8884,1.8883,1.8883,1.8883,0,1.9261,1.9244,1.9243,1.9202,1.9184,1.9173,1.9131,1.9118,1.9093,1.9064,1.9043,1.9007,1.8974,1.8967,1.8942,1.8941,1.8934,1.8914,1.889,1.8917,1.8921,1.8922,1.8887,1.8886,1.8886,1.8885,0,0,1.9324,1.9262,1.9263,1.9243,1.9198,1.9183,1.9169,1.9138,1.9126,1.9097,1.9083,1.905,1.903,1.9009,1.898,1.8974,1.8991,1.8954,1.8952,1.8961,1.8986,1.9002,1.9005,1.8973,1.8973,1.8973,1.8989,0,1.9347,1.9322,1.9286,1.9272,1.9254,1.9213,1.92,1.9171,1.9143,1.9123,1.9092,1.9069,1.9046,1.9032,1.9024,1.8991,1.8995,1.8989,1.8957,1.8957,1.8968,1.9007,1.9024,1.904,1.8991,1.8991,1.8991,0,1.9371,1.9345,1.933,1.9285,1.9276,1.9266,1.9234,1.9216,1.918,1.9161,1.9137,1.9107,1.9088,1.9067,1.904,1.9036,1.9021,1.9003,1.9002,1.8997,1.8975,1.9002,1.9045,1.9047,1.8993,1.8993,1.8993,0,1.9418,1.9378,1.9364,1.9348,1.9297,1.929,1.9268,1.9232,1.9215,1.9186,1.9174,1.9143,1.9126,1.9102,1.9063,1.9052,1.9039,1.9015,1.9021,1.9022,1.9019,1.902,1.9059,1.9011,1.9011,1.9011,1.9011,0,1.9447,1.9438,1.9384,1.9374,1.9363,1.9322,1.9311,1.9285,1.9253,1.9236,1.9198,1.9183,1.9133,1.9112,1.9081,1.9062,1.9055,1.9037,1.9029,1.904,1.9042,1.9029,1.9026,1.9012,1.9012,1.9011,1.9011,0,1.9496,1.9459,1.944,1.9393,1.9381,1.9375,1.9333,1.9321,1.9292,1.9272,1.9264,1.9218,1.919,1.9149,1.911,1.9089,1.9074,1.9061,1.9087,1.9081,1.9089,1.9088,1.912,1.9122,1.9074,1.9075,1.9075,0,1.9517,1.951,1.9462,1.9449,1.9428,1.9408,1.939,1.9349,1.9332,1.929,1.9283,1.9254,1.9227,1.9185,1.9147,1.9116,1.9101,1.9114,1.9096,1.9107,1.91,1.91,1.9098,1.9118,1.9119,1.912,1.912,0,1.9557,1.9539,1.9517,1.9487,1.9468,1.9443,1.9415,1.9406,1.9358,1.9341,1.9313,1.9293,1.9252,1.9222,1.9186,1.9161,1.9132,1.9127,1.9126,1.9137,1.9151,1.9142,1.9097,1.9126,1.9125,1.9125,1.9125,1.9124,1.9592,1.9583,1.9548,1.9523,1.9499,1.9474,1.946,1.943,1.9407,1.9371,1.9348,1.9321,1.9284,1.9232,1.9209,1.9186,1.9174,1.9173,1.9172,1.9173,1.9176,1.9156,1.9179,1.9179,1.9179,1.9178,1.9178,0,1.9629,1.9605,1.9583,1.9546,1.9526,1.9503,1.9471,1.9455,1.9433,1.9402,1.9377,1.9344,1.9315,1.9274,1.9241,1.9231,1.9216,1.9223,1.9223,1.9217,1.919,1.9193,1.9235,1.9235,1.9235,1.9235,1.9235,1.9235,1.9646,1.963,1.9608,1.9578,1.9552,1.9527,1.9511,1.9487,1.9462,1.9428,1.9404,1.9378,1.9342,1.9306,1.9277,1.9266,1.9255,1.9266,1.925,1.9225,1.9219,1.9215,1.9217,1.9264,1.9264,1.9279,1.9279,1.928]}]]